Flint, MI

1:10 PM EST on December 16, 2017 (GMT -0500)
Bishop International

Weather History for KFNT - October, 2012

Change the Weather History Date:

Thursday, October 18, 2012

  Actual Average Record
Temperature  
Mean Temperature 54 °F 49 °F  
Max Temperature 60 °F 59 °F 83 °F (1938)
Min Temperature 47 °F 39 °F 22 °F (1952)
Degree Days  
Heating Degree Days 11 16  
Month to date heating degree days 241 245  
Since 1 July heating degree days 415 455  
Cooling Degree Days 0 0  
Month to date cooling degree days 2 2  
Year to date cooling degree days 855 528  
Growing Degree Days 5 (Base 50)    
Moisture  
Dew Point 44 °F    
Average Humidity 62    
Maximum Humidity 86    
Minimum Humidity 37    
Precipitation  
Precipitation 0.34 in 0.08 in 1.15 in (1947)
Month to date precipitation 1.74 1.51  
Year to date precipitation 26.04 25.82  
Snow  
Snow 0.00 in 0.00 in T in (1992)
Month to date snowfall 0.0 0.2  
Since 1 July snowfall 0.0 0.2  
Since 1 September snowfall 0.0 0.2  
Snow Depth 0.00 in    
Sea Level Pressure  
Sea Level Pressure 29.50 in    
Wind  
Wind Speed 12 mph (South)    
Max Wind Speed 24 mph    
Max Gust Speed 32 mph    
Visibility 9 miles    
Events Rain    
T = Trace of Precipitation, MM = Missing Value Source: NWS Daily Summary

Daily Weather History Graph

Daily Weather History Graph

Search for Another Location

Airport or City:

Trip Planner

Search our weather history database for the weather conditions in past years. The results will help you decide how hot, cold, wet, or windy it might be!

Date:

Astronomy

Oct. 18, 2012 Rise Set
Actual Time 7:52 AM EDT 6:46 PM EDT
Civil Twilight 7:23 AM EDT 7:15 PM EDT
Nautical Twilight 6:50 AM EDT 7:48 PM EDT
Astronomical Twilight 6:18 AM EDT 8:21 PM EDT
Moon 11:38 AM EDT (10/18) 9:14 PM EDT (10/18)
Length of Visible Light 11h 51m
Length of Day
10h 54m
Waxing Crescent, 14% of the Moon is Illuminated
Oct 18
Waxing Crescent
Oct 21
First Quarter
Oct 29
Full
Nov 6
Last Quarter
Nov 13
New

Hourly Weather History & Observations

Time (EDT) Temp. Dew Point Humidity Pressure Visibility Wind Dir Wind Speed Gust Speed Precip Events Conditions
12:53 AM 57.9 °F 54.0 °F 87% 29.55 in 9.0 mi SSW 5.8 mph - 0.02 in Rain Light Rain
1:53 AM 57.9 °F 54.0 °F 87% 29.55 in 4.0 mi SSE 13.8 mph 19.6 mph 0.16 in Rain Rain
2:53 AM 59.0 °F 53.1 °F 81% 29.49 in 10.0 mi SE 11.5 mph - 0.06 in   Overcast
3:53 AM 59.0 °F 52.0 °F 78% 29.45 in 10.0 mi SE 12.7 mph - N/A   Mostly Cloudy
4:53 AM 59.0 °F 52.0 °F 78% 29.41 in 10.0 mi SE 12.7 mph 20.7 mph N/A   Mostly Cloudy
5:53 AM 60.1 °F 50.0 °F 69% 29.39 in 10.0 mi SE 15.0 mph 25.3 mph N/A   Mostly Cloudy
6:53 AM 59.0 °F 48.9 °F 69% 29.38 in 10.0 mi SE 12.7 mph - N/A   Mostly Cloudy
7:53 AM 60.1 °F 46.9 °F 62% 29.36 in 10.0 mi SSE 17.3 mph 26.5 mph N/A   Overcast
8:53 AM 57.9 °F 48.0 °F 70% 29.37 in 10.0 mi South 15.0 mph 26.5 mph 0.00 in Rain Light Rain
9:34 AM 55.4 °F 50.0 °F 82% 29.39 in 4.0 mi South 15.0 mph 28.8 mph 0.05 in Rain Light Rain
9:53 AM 55.0 °F 51.1 °F 86% 29.40 in 4.0 mi SSW 18.4 mph 26.5 mph 0.08 in Rain Light Rain
10:07 AM 53.6 °F 48.2 °F 82% 29.42 in 7.0 mi WSW 10.4 mph 25.3 mph 0.02 in Rain Light Rain
10:53 AM 53.1 °F 48.0 °F 83% 29.43 in 10.0 mi SW 9.2 mph - 0.03 in Rain Light Rain
11:53 AM 52.0 °F 46.9 °F 83% 29.46 in 10.0 mi SSW 12.7 mph - 0.02 in Rain Light Rain
12:53 PM 52.0 °F 46.0 °F 80% 29.49 in 10.0 mi SSW 9.2 mph - 0.00 in   Overcast
1:53 PM 55.0 °F 42.1 °F 62% 29.51 in 10.0 mi SW 16.1 mph 29.9 mph N/A   Mostly Cloudy
2:53 PM 59.0 °F 39.0 °F 48% 29.52 in 10.0 mi SW 18.4 mph 29.9 mph N/A   Scattered Clouds
3:53 PM 59.0 °F 34.0 °F 39% 29.54 in 10.0 mi SW 12.7 mph 23.0 mph N/A   Partly Cloudy
4:53 PM 57.0 °F 33.1 °F 40% 29.55 in 10.0 mi SSW 12.7 mph 21.9 mph N/A   Scattered Clouds
5:53 PM 57.0 °F 34.0 °F 42% 29.57 in 10.0 mi South 12.7 mph - N/A   Clear
6:53 PM 55.0 °F 35.1 °F 47% 29.60 in 10.0 mi South 12.7 mph - N/A   Clear
7:53 PM 50.0 °F 36.0 °F 59% 29.61 in 10.0 mi SSE 9.2 mph - N/A   Clear
8:53 PM 51.1 °F 36.0 °F 56% 29.62 in 10.0 mi SSE 10.4 mph - N/A   Mostly Cloudy
9:53 PM 50.0 °F 36.0 °F 59% 29.63 in 10.0 mi SSE 10.4 mph - N/A   Scattered Clouds
10:53 PM 51.1 °F 36.0 °F 56% 29.65 in 10.0 mi South 6.9 mph - N/A   Overcast
11:53 PM 51.1 °F 36.0 °F 56% 29.66 in 10.0 mi South 8.1 mph - N/A   Overcast